Kenai, AK

7:18 AM AKDT on September 17, 2019 (GMT -0800)
Kenai Municipal

Weather History for PAEN - August, 2019

Change the Weather History Date:

Friday, August 16, 2019

  Actual Average Record
Temperature  
Mean Temperature 60 °F -  
Max Temperature 73 °F 62 °F 82 °F (2004)
Min Temperature 48 °F 45 °F 34 °F (1983)
Degree Days  
Heating Degree Days 4    
Growing Degree Days 10 (Base 50)    
Moisture  
Dew Point 51 °F    
Average Humidity 67    
Maximum Humidity 90    
Minimum Humidity 44    
Precipitation  
Precipitation 0.00 in - - ()
Sea Level Pressure  
Sea Level Pressure 30.19 in    
Wind  
Wind Speed 6 mph (SW)    
Max Wind Speed 18 mph    
Max Gust Speed -    
Visibility 10 miles    
Events      
Averages and records for this station are not official NWS values.
T = Trace of Precipitation, MM = Missing Value Source: NWS Daily Summary

Daily Weather History Graph

Daily Weather History Graph

Search for Another Location

Airport or City:

Astronomy

Aug. 16, 2019 Rise Set
Actual Time 6:19 AM AKDT 9:57 PM AKDT
Civil Twilight 5:26 AM AKDT 10:49 PM AKDT
Nautical Twilight 4:08 AM AKDT 12:06 AM AKDT
Astronomical Twilight 2:41 AM AKDT 1:36 AM AKDT
Moon 10:47 PM AKDT (8/16) 7:24 AM AKDT (8/16)
Length of Visible Light 17h 22m
Length of Day
15h 38m
Full, 98% of the Moon is Illuminated
Aug 16
Full
Aug 23
Last Quarter
Aug 30
New
Sep 5
First Quarter
Sep 13
Full

Hourly Weather History & Observations

Time (AKDT) Temp. Dew Point Humidity Pressure Visibility Wind Dir Wind Speed Gust Speed Precip Events Conditions
12:53 AM 55.9 °F 51.1 °F 84% 30.26 in 10.0 mi North 3.5 mph - N/A   Clear
1:53 AM 55.0 °F 51.1 °F 86% 30.26 in 10.0 mi Calm Calm - N/A   Clear
2:53 AM 54.0 °F 51.1 °F 90% 30.26 in 10.0 mi Calm Calm - N/A   Clear
3:53 AM 53.1 °F 50.0 °F 89% 30.26 in 10.0 mi Calm Calm - N/A   Clear
4:53 AM 52.0 °F 48.0 °F 86% 30.25 in 10.0 mi Calm Calm - N/A   Clear
5:53 AM 48.9 °F 46.0 °F 90% 30.25 in 10.0 mi Calm Calm - N/A   Clear
6:53 AM 50.0 °F 46.9 °F 89% 30.25 in 10.0 mi Calm Calm - N/A   Clear
7:53 AM 60.1 °F 53.1 °F 78% 30.24 in 10.0 mi SSW 8.1 mph - N/A   Clear
8:53 AM 63.0 °F 53.1 °F 70% 30.25 in 10.0 mi South 9.2 mph - N/A   Clear
9:53 AM 66.9 °F 52.0 °F 59% 30.25 in 10.0 mi SSW 13.8 mph - N/A   Clear
10:53 AM 68.0 °F 51.1 °F 55% 30.24 in 10.0 mi SSW 18.4 mph - N/A   Clear
11:53 AM 70.0 °F 51.1 °F 51% 30.23 in 10.0 mi SSW 16.1 mph - N/A   Clear
12:53 PM 71.1 °F 50.0 °F 47% 30.21 in 10.0 mi SW 13.8 mph - N/A   Clear
1:53 PM 72.0 °F 48.9 °F 44% 30.21 in 10.0 mi SW 12.7 mph - N/A   Clear
2:53 PM 73.0 °F 50.0 °F 44% 30.19 in 10.0 mi SW 13.8 mph - N/A   Clear
3:53 PM 73.0 °F 51.1 °F 46% 30.18 in 10.0 mi SW 13.8 mph - N/A   Clear
4:53 PM 70.0 °F 52.0 °F 53% 30.15 in 10.0 mi SW 10.4 mph - N/A   Clear
5:53 PM 71.1 °F 53.1 °F 53% 30.12 in 10.0 mi SSW 12.7 mph - N/A   Clear
6:53 PM 66.0 °F 54.0 °F 65% 30.09 in 10.0 mi SSW 11.5 mph - N/A   Clear
7:53 PM 68.0 °F 52.0 °F 56% 30.09 in 10.0 mi SSW 12.7 mph - N/A   Clear
8:53 PM 66.9 °F 52.0 °F 59% 30.09 in 10.0 mi SSW 12.7 mph - N/A   Clear
9:53 PM 64.0 °F 52.0 °F 65% 30.08 in 10.0 mi SSW 11.5 mph - N/A   Clear
10:53 PM 62.1 °F 52.0 °F 70% 30.07 in 10.0 mi West 3.5 mph - N/A   Clear
11:53 PM 57.9 °F 52.0 °F 81% 30.07 in 10.0 mi North 8.1 mph - N/A   Clear